{"data":{"norad_id":60313,"intl_designator":"2024-133N","name":"STARLINK-11205 [DTC]","alt_names":[],"object_type":"PAYLOAD","status":"ACTIVE","operator":null,"country":"US","launch_date":"2024-07-28","launch_site_code":"AFWTR","launch_vehicle":null,"mission":null,"orbit_class":"UNKNOWN","rcs_meters":null,"size_class":null,"mass_kg":null,"dimensions":null,"purposes":["comms"],"wikipedia_slug":null,"has_3d_model":false,"image_url":null,"decayed_at":null,"tle_current":{"epoch":"2026-05-25T02:43:38.845920Z","epoch_age_seconds":72048,"freshness":"FRESH","line1":"1 60313U 24133N   26145.11364405  .00004590  00000+0  42663-4 0  9990","line2":"2 60313  53.1587 129.7468 0000786  85.3861 274.7247 15.69741295105731","mean_motion":15.69741295,"eccentricity":7.86e-5,"inclination_deg":53.1587,"raan_deg":129.7468,"arg_perigee_deg":85.3861,"mean_anomaly_deg":274.7247,"bstar":4.2663e-5,"rev_number":10573,"period_min":91.73486131675,"perigee_km":359.10760854477,"apogee_km":360.16678664863,"semimajor_km":6737.7741975967,"source":"CELESTRAK","updated_at":"2026-05-25T13:38:19.230383Z"}}}